[[{"header":{"parameterUnit":"m.s-1","parameterCategory":1,"la1":30.2992,"la2":30.254,"lo1":-89.0895,"lo2":-89.0443,"dy":0.0025,"dx":0.0025,"nx":19,"ny":19,"refTime":"2026-04-21T09:00:00:Z","depth":0,"parameterNumber":2,"parameterNumberName":"U-component_of_WINDS"},"data":[0,0,0,-3.0921,-3.0922,-3.0991,-3.0991,-3.1086,-3.1087,0,0,0,0,0,0,0,0,0,0,0,-3.0905,-3.0906,-3.0921,-3.0923,-3.0991,-3.0991,-3.1086,-3.1087,0,0,0,0,0,0,0,0,0,0,0,-3.0904,-3.0905,-3.0906,-3.0923,-3.0991,-3.0991,-3.1086,-3.1031,0,0,0,0,0,0,0,0,0,0,-3.0964,-3.0953,-3.0905,-3.0906,-3.0923,-3.0991,-3.0991,-3.1029,-3.1035,-3.1058,0,-3.108,0,-3.1085,-3.1094,-3.1094,0,0,0,-3.0919,-3.0948,-3.0963,-3.0906,-3.0924,-3.0991,-3.0959,-3.1032,-3.1039,-3.1066,-3.1081,-3.1085,-3.1087,-3.1094,-3.1095,-3.1241,-3.1241,0,0,-3.0916,-3.0919,-3.0958,-3.0967,-3.0957,-3.0957,-3.0961,-3.1036,-3.1052,-3.1082,-3.1087,-3.1088,-3.1095,-3.1096,-3.124,-3.1241,0,0,0,-3.0907,-3.0917,-3.0929,-3.0964,-3.0975,-3.0959,-3.0964,-3.1049,-3.1053,-3.1088,-3.1089,-3.1096,-3.1097,-3.1239,-3.124,-3.1284,0,0,0,-3.0904,-3.0912,-3.0928,-3.0931,-3.0974,-3.1013,-3.0975,-3.1048,-3.1056,-3.1089,-3.1096,-3.1098,-3.1238,-3.124,-3.1281,-3.1304,0,0,0,-3.0899,-3.0911,-3.0922,-3.0931,-3.0961,-3.1012,-3.102,-3.1049,-3.1057,-3.1094,-3.1098,-3.1237,-3.1239,-3.1278,-3.1299,-3.1343,0,0,0,-3.0894,-3.096,-3.0923,-3.0998,-3.096,-3.1039,-3.1019,-3.1078,-3.1115,-3.1096,-3.1238,-3.124,-3.1277,-3.1296,-3.134,-3.138,-3.1397,0,0,-3.098,-3.0971,-3.1015,-3.0983,-3.107,-3.1028,-3.1121,-3.1151,-3.1152,-3.1211,-3.1215,-3.1282,-3.1299,-3.1342,-3.1494,-3.1508,0,0,0,-3.1043,-3.1075,-3.1097,-3.1132,-3.1157,-3.1181,-3.1197,-3.1208,-3.1259,-3.1183,-3.131,-3.132,-3.1346,-3.1364,-3.1376,-3.1397,-3.1249,-3.1249,-3.1249,-3.1169,-3.1166,-3.1239,-3.1245,-3.128,-3.1296,-3.1324,-3.1343,-3.1329,-3.136,-3.1377,-3.1469,-3.1491,-3.15,-3.1522,-3.1399,-3.1399,-3.1399,-3.1399,-3.1293,-3.1337,-3.132,-3.1383,-3.1381,-3.1435,-3.1454,-3.1443,-3.1493,-3.1455,-3.1478,-3.1436,-3.1515,-3.1534,-3.1402,-3.1402,-3.1401,-3.1401,-3.1401,-3.1374,-3.1395,-3.1408,-3.146,-3.1501,-3.1505,-3.1554,-3.155,-3.1547,-3.1569,-3.1586,-3.1586,-3.1584,-3.1578,-3.1578,-3.1578,-3.1579,-3.1579,-3.1579,-3.1452,-3.1466,-3.1508,-3.1541,-3.1564,-3.1594,-3.1613,-3.1635,-3.1659,-3.1652,-3.1652,-3.1636,-3.1523,-3.1495,-3.1584,-3.1583,-3.1583,-3.1582,-3.1582,-3.1578,-3.1549,-3.1613,-3.1636,-3.1676,-3.1717,-3.1712,-3.1758,-3.1776,-3.1801,-3.1781,-3.1699,-3.1689,-3.168,-3.1656,-3.1781,-3.1781,-3.1781,-3.1781,-3.1645,-3.1641,-3.1706,-3.1743,-3.1779,-3.1781,-3.1855,-3.1871,-3.1883,-3.1894,-3.1876,-3.1844,-3.1835,-3.1831,-3.1818,-3.1796,-3.1954,-3.1954,-3.1955,-3.1722,-3.1721,-3.1783,-3.1795,-3.1826,-3.1853,-3.1922,-3.1966,-3.1974,-3.1961,-3.1903,-3.1895,-3.1844,-3.1828,-3.1812,-3.1793,-3.1751,0,0]},{"header":{"parameterUnit":"m.s-1","parameterCategory":1,"la1":30.2992,"la2":30.254,"lo1":-89.0895,"lo2":-89.0443,"dy":0.0025,"dx":0.0025,"nx":19,"ny":19,"refTime":"2026-04-21T09:00:00:Z","depth":0,"parameterNumber":3,"parameterNumberName":"V-component_of_WINDS"},"data":[0,0,0,4.2685,4.2686,4.2697,4.2697,4.2723,4.2724,0,0,0,0,0,0,0,0,0,0,0,4.2688,4.2689,4.2685,4.2686,4.2697,4.2697,4.2723,4.2724,0,0,0,0,0,0,0,0,0,0,0,4.2688,4.2689,4.2689,4.2686,4.2697,4.2697,4.2723,4.271,0,0,0,0,0,0,0,0,0,0,4.2697,4.2706,4.2689,4.2689,4.2686,4.2697,4.2697,4.271,4.2711,4.2723,0,4.2734,0,4.273,4.2726,4.2726,0,0,0,4.2681,4.2705,4.2702,4.2689,4.2686,4.2697,4.2691,4.271,4.2712,4.2725,4.2735,4.2735,4.273,4.2726,4.2726,4.2808,4.2809,0,0,4.268,4.2694,4.2701,4.2704,4.2703,4.2691,4.2691,4.2711,4.2723,4.2735,4.2736,4.273,4.2726,4.2727,4.2807,4.2808,0,0,0,4.2682,4.2694,4.269,4.2703,4.2704,4.2691,4.2692,4.2722,4.272,4.2736,4.2731,4.2727,4.2727,4.2807,4.2808,4.285,0,0,0,4.2681,4.2695,4.269,4.2699,4.2704,4.2713,4.2702,4.2718,4.272,4.2731,4.2727,4.2727,4.2806,4.2807,4.2848,4.2868,0,0,0,4.2686,4.2695,4.2699,4.2699,4.2705,4.2713,4.2711,4.2718,4.2717,4.2726,4.2728,4.2806,4.2807,4.2845,4.2864,4.2893,0,0,0,4.2694,4.2737,4.27,4.2746,4.2705,4.2739,4.2711,4.2736,4.2749,4.2727,4.2806,4.2808,4.2845,4.2862,4.2891,4.2919,4.2933,0,0,4.2756,4.2745,4.2771,4.2738,4.2782,4.2736,4.2787,4.2786,4.2775,4.2798,4.2799,4.2849,4.2864,4.2892,4.3005,4.3015,0,0,0,4.2795,4.2814,4.2822,4.2835,4.2836,4.2837,4.2827,4.2827,4.2846,4.2789,4.2867,4.2876,4.2892,4.2905,4.2914,4.2927,4.2814,4.2814,4.2814,4.2901,4.2884,4.2926,4.2911,4.2924,4.2913,4.2922,4.2919,4.2899,4.2918,4.2924,4.2994,4.301,4.3016,4.303,4.2938,4.2939,4.2939,4.2939,4.2989,4.3013,4.2985,4.3015,4.2997,4.3023,4.3014,4.2999,4.302,4.2988,4.3001,4.2966,4.3029,4.304,4.2942,4.2941,4.2941,4.2941,4.2941,4.3056,4.3064,4.3063,4.308,4.3095,4.3079,4.31,4.3084,4.3068,4.3081,4.3086,4.3085,4.3082,4.3085,4.3085,4.3086,4.3086,4.3086,4.3086,4.3125,4.3122,4.3142,4.3147,4.3153,4.3159,4.315,4.3155,4.3157,4.3143,4.3143,4.3121,4.3038,4.3017,4.309,4.3089,4.3089,4.3088,4.3088,4.3219,4.3195,4.3226,4.3232,4.3236,4.3252,4.3231,4.3244,4.3247,4.3258,4.3233,4.3175,4.3162,4.3155,4.3137,4.3236,4.3236,4.3236,4.3236,4.3274,4.3267,4.3294,4.3306,4.3315,4.3299,4.3335,4.3328,4.3317,4.3318,4.3301,4.3277,4.3271,4.3262,4.3252,4.3236,4.3357,4.3358,4.3358,4.3331,4.3323,4.3357,4.3346,4.3348,4.335,4.3383,4.3397,4.3381,4.3362,4.3318,4.3313,4.3273,4.3262,4.3241,4.3226,4.3195,0,0]}]]